[[{"header":{"parameterUnit":"m.s-1","parameterCategory":1,"la1":30.2991,"la2":30.254,"lo1":-89.0895,"lo2":-89.0444,"dy":0.0017,"dx":0.0017,"nx":28,"ny":28,"refTime":"2024-05-14T21:00:00:Z","depth":0,"parameterNumber":2,"parameterNumberName":"U-component_of_WINDS"},"data":[0,0,0,0,0,0,0,0,0,0,0,0,0,0,0,0,0,0,0,0,0,0,0,0,0,0,0,0,0,0,0,0,0,0,0,0,0,0,0,0,0,0,0,0,0,0,0,0,0,0,0,0,0,0,0,0,0,0,-2.0401,-2.04,0,-2.0301,-2.03,-2.0299,-2.0219,-2.0218,-2.0217,-2.0216,-2.0112,-2.011,-2.0108,0,0,0,0,0,0,0,0,0,0,0,0,0,-2.0524,-2.0522,-2.0401,-2.04,-2.0398,-2.0301,-2.03,-2.0298,-2.0219,-2.0218,-2.0217,-2.0216,-2.0113,-2.0111,-2.0108,0,0,0,0,0,0,0,0,0,0,0,0,0,-2.0452,-2.0521,-2.0401,-2.0347,-2.0341,-2.0301,-2.03,-2.0298,-2.0219,-2.0218,-2.0217,-2.0216,-2.0114,-2.0111,-2.0108,-2.0113,0,0,-2.0099,-2.0097,0,0,0,0,0,0,0,0,-2.0456,-2.0447,-2.0356,-2.0351,-2.0344,-2.0271,-2.0305,-2.0236,-2.0219,-2.0266,-2.0216,-2.0215,-2.0166,-2.0159,-2.0142,-2.0108,-2.0104,-2.0098,-2.0097,-2.0095,-2.0094,0,0,0,0,0,0,0,-2.0461,-2.0451,-2.0361,-2.0355,-2.0348,-2.0328,-2.0317,-2.0291,-2.0224,-2.0261,-2.0255,-2.0245,-2.0163,-2.0146,-2.0139,-2.0102,-2.0098,-2.0096,-2.0094,-2.0093,-2.0069,-2.007,0,0,0,0,0,0,-2.0474,-2.0456,-2.0364,-2.0358,-2.0398,-2.0327,-2.0314,-2.0296,-2.0224,-2.0212,-2.0246,-2.0241,-2.0151,-2.0143,-2.0136,-2.0137,-2.0095,-2.0092,-2.0091,-2.0067,-2.0069,-2.007,0,0,0,0,0,0,-2.0477,-2.0467,-2.0368,-2.0405,-2.0391,-2.0326,-2.0306,-2.0294,-2.0277,-2.0212,-2.0199,-2.0241,-2.015,-2.014,-2.012,-2.0132,-2.0091,-2.0088,-2.0066,-2.0068,-2.0069,-2.014,0,0,0,0,0,0,-2.0481,-2.0469,-2.0469,-2.0406,-2.039,-2.0354,-2.0307,-2.0293,-2.0272,-2.0266,-2.0204,-2.0193,-2.0148,-2.0125,-2.0117,-2.0127,-2.0086,-2.0064,-2.0067,-2.0069,-2.0136,-2.0144,-2.0151,0,0,0,0,0,-2.0486,-2.0493,-2.047,-2.0459,-2.0389,-2.0355,-2.0346,-2.0295,-2.0274,-2.0274,-2.0233,-2.0195,-2.0133,-2.0123,-2.0114,-2.0124,-2.0063,-2.0066,-2.0069,-2.0133,-2.0143,-2.0151,0,0,0,0,0,0,-2.0558,-2.0483,-2.0457,-2.0443,-2.0407,-2.0342,-2.034,-2.0307,-2.0274,-2.0269,-2.0207,-2.0194,-2.0181,-2.015,-2.0141,-2.0126,-2.0093,-2.0094,-2.0146,-2.0154,-2.0161,-2.0168,-2.0083,0,0,0,0,0,-2.0573,-2.0551,-2.0487,-2.0481,-2.0464,-2.0406,-2.0389,-2.0354,-2.0312,-2.0296,-2.0253,-2.0214,-2.0186,-2.0169,-2.0139,-2.0133,-2.0118,-2.0135,-2.0142,-2.0148,-2.0149,-2.0145,-2.0151,-2.0079,-2.0079,-2.0079,0,0,-2.0602,-2.0558,-2.0548,-2.0495,-2.0462,-2.0441,-2.0393,-2.0373,-2.0357,-2.0293,-2.0271,-2.0239,-2.0192,-2.0179,-2.0171,-2.0153,-2.0167,-2.0152,-2.0157,-2.0155,-2.0148,-2.0155,-2.0161,-2.0081,-2.008,-2.008,0,0,-2.0644,-2.0609,-2.0601,-2.057,-2.0521,-2.0483,-2.0482,-2.0422,-2.0399,-2.0377,-2.0329,-2.0309,-2.0262,-2.023,-2.0208,-2.0243,-2.0207,-2.0235,-2.0272,-2.0268,-2.0274,-2.0279,-2.0291,-2.0296,-2.0237,-2.0237,-2.0237,0,-2.0686,-2.0653,-2.0601,-2.0584,-2.0562,-2.0505,-2.0497,-2.0469,-2.0413,-2.04,-2.0381,-2.0322,-2.0286,-2.0265,-2.0274,-2.0258,-2.0255,-2.0241,-2.0278,-2.0282,-2.0285,-2.0296,-2.0301,-2.0241,-2.024,-2.024,-2.024,0,-2.0707,-2.0685,-2.0685,-2.0634,-2.0612,-2.0599,-2.0546,-2.0531,-2.0498,-2.0463,-2.0442,-2.0397,-2.0358,-2.0351,-2.0319,-2.0327,-2.0317,-2.0289,-2.0255,-2.0297,-2.0306,-2.031,-2.0246,-2.0245,-2.0244,-2.0243,0,0,-2.0789,-2.0712,-2.0712,-2.0689,-2.0633,-2.0615,-2.0601,-2.0564,-2.0552,-2.0516,-2.0503,-2.0466,-2.044,-2.0415,-2.0379,-2.0376,-2.0407,-2.0348,-2.0346,-2.036,-2.0414,-2.0434,-2.044,-2.0384,-2.0384,-2.0385,-2.0417,0,-2.0822,-2.0793,-2.0747,-2.0733,-2.0713,-2.066,-2.0648,-2.0613,-2.058,-2.0558,-2.0521,-2.0496,-2.0464,-2.0449,-2.0444,-2.0404,-2.0417,-2.0402,-2.037,-2.037,-2.0382,-2.0445,-2.0466,-2.0498,-2.0421,-2.0421,-2.0422,0,-2.0855,-2.0824,-2.0809,-2.0756,-2.0745,-2.0735,-2.0699,-2.0679,-2.0638,-2.0614,-2.0589,-2.055,-2.0533,-2.0504,-2.048,-2.0471,-2.0456,-2.0435,-2.0435,-2.0429,-2.0397,-2.0439,-2.0507,-2.0512,-2.0427,-2.0426,-2.0426,0,-2.0916,-2.087,-2.0855,-2.0837,-2.0775,-2.0769,-2.0743,-2.0702,-2.0683,-2.0652,-2.0639,-2.0606,-2.0588,-2.0563,-2.0517,-2.05,-2.0499,-2.0465,-2.0478,-2.0479,-2.0478,-2.0478,-2.0544,-2.0471,-2.0471,-2.0471,-2.0471,0,-2.0956,-2.0949,-2.0882,-2.0873,-2.0863,-2.0812,-2.0804,-2.0773,-2.0737,-2.0721,-2.0674,-2.066,-2.0601,-2.0581,-2.0545,-2.0531,-2.0523,-2.0503,-2.0494,-2.0507,-2.0509,-2.0494,-2.049,-2.0472,-2.0472,-2.0472,-2.0471,0,-2.1022,-2.0976,-2.0957,-2.0901,-2.0887,-2.0882,-2.0834,-2.0824,-2.079,-2.077,-2.0763,-2.0709,-2.0682,-2.0635,-2.0595,-2.0571,-2.0564,-2.0548,-2.0578,-2.0571,-2.0587,-2.0586,-2.0644,-2.0649,-2.0574,-2.0575,-2.0576,0,-2.1049,-2.1043,-2.0987,-2.0973,-2.0949,-2.0928,-2.0909,-2.086,-2.0842,-2.0797,-2.0792,-2.0763,-2.0736,-2.0697,-2.0654,-2.0623,-2.0605,-2.0628,-2.06,-2.0614,-2.0605,-2.0605,-2.0605,-2.0634,-2.0635,-2.0636,-2.0636,0,-2.1104,-2.1083,-2.1058,-2.1026,-2.1006,-2.0978,-2.0948,-2.0939,-2.0883,-2.0866,-2.0839,-2.0819,-2.0779,-2.075,-2.0714,-2.0687,-2.0653,-2.0646,-2.0647,-2.066,-2.0677,-2.0667,-2.0593,-2.0644,-2.0643,-2.0643,-2.0642,-2.0642,-2.1151,-2.1143,-2.1103,-2.1077,-2.105,-2.1024,-2.1011,-2.0976,-2.0953,-2.0917,-2.089,-2.0865,-2.0827,-2.0775,-2.0751,-2.0731,-2.0715,-2.0717,-2.0717,-2.0718,-2.0723,-2.0682,-2.0725,-2.0724,-2.0724,-2.0724,-2.0724,0,-2.1202,-2.1175,-2.1152,-2.1112,-2.1093,-2.1064,-2.1029,-2.1015,-2.0994,-2.0961,-2.0937,-2.0907,-2.088,-2.0836,-2.0805,-2.0798,-2.0782,-2.0792,-2.0791,-2.0785,-2.0739,-2.0741,-2.0806,-2.0806,-2.0806,-2.0806,-2.0806,-2.0806,-2.1227,-2.1212,-2.1187,-2.1158,-2.1131,-2.1107,-2.109,-2.1066,-2.104,-2.1008,-2.0986,-2.0958,-2.0921,-2.0888,-2.0862,-2.085,-2.0841,-2.0856,-2.0839,-2.0796,-2.0788,-2.0781,-2.0782,-2.0854,-2.0854,-2.0886,-2.0886,-2.0886]},{"header":{"parameterUnit":"m.s-1","parameterCategory":1,"la1":30.2991,"la2":30.254,"lo1":-89.0895,"lo2":-89.0444,"dy":0.0017,"dx":0.0017,"nx":28,"ny":28,"refTime":"2024-05-14T21:00:00:Z","depth":0,"parameterNumber":3,"parameterNumberName":"V-component_of_WINDS"},"data":[0,0,0,0,0,0,0,0,0,0,0,0,0,0,0,0,0,0,0,0,0,0,0,0,0,0,0,0,0,0,0,0,0,0,0,0,0,0,0,0,0,0,0,0,0,0,0,0,0,0,0,0,0,0,0,0,0,0,2.4714,2.4714,0,2.4714,2.4714,2.4714,2.4753,2.4754,2.4755,2.4756,2.4752,2.4751,2.475,0,0,0,0,0,0,0,0,0,0,0,0,0,2.4743,2.4743,2.4714,2.4714,2.4714,2.4714,2.4714,2.4714,2.4753,2.4754,2.4755,2.4756,2.4752,2.4751,2.475,0,0,0,0,0,0,0,0,0,0,0,0,0,2.4736,2.4742,2.4714,2.4733,2.4735,2.4714,2.4714,2.4714,2.4752,2.4754,2.4756,2.4757,2.4753,2.4751,2.475,2.4709,0,0,2.4745,2.4744,0,0,0,0,0,0,0,0,2.4736,2.4735,2.473,2.4732,2.4734,2.4735,2.4723,2.4712,2.4752,2.4746,2.4756,2.4758,2.4745,2.4744,2.4741,2.4709,2.4709,2.4745,2.4744,2.4743,2.4742,0,0,0,0,0,0,0,2.4737,2.4735,2.4714,2.473,2.4732,2.4741,2.4741,2.4721,2.4736,2.4746,2.4749,2.4749,2.4746,2.4742,2.4741,2.4709,2.4745,2.4743,2.4742,2.4742,2.4644,2.4642,0,0,0,0,0,0,2.4735,2.4735,2.4714,2.4714,2.4739,2.4739,2.474,2.4733,2.4737,2.4739,2.4748,2.4751,2.4744,2.4743,2.4741,2.4693,2.4743,2.4741,2.4741,2.4645,2.4643,2.4641,0,0,0,0,0,0,2.4735,2.4733,2.4714,2.4725,2.4724,2.4737,2.4729,2.4732,2.4728,2.4738,2.474,2.4741,2.4745,2.4743,2.4717,2.4694,2.4741,2.4739,2.4647,2.4645,2.4642,2.4598,0,0,0,0,0,0,2.4736,2.4733,2.4718,2.4725,2.4723,2.4691,2.4728,2.4731,2.4726,2.473,2.4732,2.4734,2.4746,2.4719,2.4715,2.4693,2.4738,2.4649,2.4646,2.4643,2.4602,2.4595,2.4589,0,0,0,0,0,2.4737,2.4705,2.4717,2.4714,2.4705,2.469,2.4688,2.4704,2.4724,2.4709,2.4715,2.4734,2.4697,2.4716,2.4712,2.4688,2.4651,2.4647,2.4643,2.4605,2.4596,2.4589,0,0,0,0,0,0,2.4694,2.4706,2.472,2.4689,2.4688,2.4696,2.4678,2.4694,2.4687,2.4691,2.4709,2.471,2.468,2.4682,2.4703,2.4649,2.4677,2.4673,2.4649,2.4641,2.4635,2.4635,2.4737,0,0,0,0,0,2.4681,2.4668,2.4679,2.4651,2.465,2.4664,2.4658,2.467,2.4669,2.4669,2.4673,2.4671,2.4659,2.465,2.4639,2.4603,2.4603,2.4584,2.4578,2.4572,2.4568,2.4548,2.454,2.4629,2.4629,2.4629,0,0,2.4653,2.4659,2.4649,2.4642,2.4643,2.4629,2.4663,2.4647,2.4636,2.4666,2.4642,2.4645,2.4643,2.4612,2.4598,2.4612,2.4543,2.4568,2.4563,2.4562,2.4544,2.4535,2.4528,2.4627,2.4627,2.4628,0,0,2.4596,2.4599,2.4576,2.4577,2.4578,2.4588,2.4582,2.4588,2.4591,2.4568,2.459,2.4577,2.4556,2.4554,2.455,2.4493,2.451,2.4489,2.4454,2.4435,2.4428,2.4422,2.4401,2.4393,2.4485,2.4485,2.4485,0,2.4562,2.4542,2.4562,2.4544,2.454,2.4568,2.4545,2.4544,2.4541,2.4537,2.4553,2.4528,2.4528,2.4497,2.4483,2.4479,2.4473,2.4489,2.4428,2.4422,2.4416,2.4397,2.4389,2.4482,2.4483,2.4483,2.4483,0,2.45,2.4486,2.4467,2.4465,2.4459,2.4438,2.4454,2.4445,2.4458,2.4466,2.4441,2.4443,2.4434,2.4427,2.4439,2.4397,2.4406,2.4425,2.4453,2.4405,2.4387,2.4379,2.4479,2.448,2.448,2.4481,0,0,2.4414,2.4425,2.4417,2.4417,2.4421,2.441,2.439,2.4383,2.4375,2.4372,2.4355,2.4337,2.4355,2.435,2.4362,2.4345,2.43,2.4366,2.4366,2.4353,2.4253,2.4239,2.423,2.4311,2.431,2.4309,2.4253,0,2.4359,2.4328,2.4345,2.431,2.4297,2.4324,2.4307,2.4307,2.4313,2.4302,2.4309,2.4296,2.432,2.4318,2.4303,2.4309,2.428,2.4313,2.4295,2.4294,2.4294,2.4221,2.4206,2.4153,2.4246,2.4245,2.4244,0,2.429,2.4286,2.4251,2.4258,2.4253,2.4237,2.4232,2.4221,2.4221,2.4227,2.4223,2.4239,2.4219,2.4248,2.422,2.4242,2.4236,2.4238,2.4236,2.4234,2.4266,2.4217,2.4137,2.4128,2.4233,2.4234,2.4235,0,2.4232,2.4217,2.4194,2.4193,2.42,2.4189,2.4191,2.4193,2.4187,2.4182,2.4178,2.417,2.4165,2.4158,2.4171,2.4191,2.4141,2.4171,2.4145,2.4144,2.4133,2.4133,2.405,2.4129,2.4129,2.4129,2.413,0,2.4168,2.4145,2.4168,2.4154,2.4129,2.4148,2.4122,2.4127,2.4129,2.4115,2.4138,2.4124,2.4143,2.4131,2.414,2.4116,2.4113,2.4117,2.412,2.4115,2.4114,2.411,2.4114,2.4127,2.4128,2.4128,2.4129,0,2.4098,2.4112,2.4089,2.4098,2.41,2.4081,2.4089,2.4075,2.4084,2.4066,2.4063,2.4076,2.4063,2.4076,2.4063,2.407,2.4037,2.4045,2.4037,2.4039,2.4012,2.4014,2.3923,2.3912,2.3999,2.3998,2.3997,0,2.4056,2.4039,2.4047,2.404,2.4042,2.403,2.4025,2.4044,2.4037,2.4036,2.4023,2.4012,2.4005,2.3982,2.399,2.398,2.3988,2.3957,2.3986,2.3982,2.3987,2.3988,2.3986,2.395,2.3949,2.3948,2.3948,0,2.398,2.3988,2.3981,2.3975,2.3969,2.3965,2.3963,2.3956,2.3975,2.3966,2.3954,2.3949,2.3937,2.3925,2.3918,2.3919,2.3936,2.3938,2.3932,2.3926,2.3922,2.3924,2.402,2.394,2.3941,2.3942,2.3942,2.3942,2.3923,2.3909,2.3913,2.3904,2.3904,2.3902,2.389,2.3898,2.3888,2.3881,2.3892,2.3877,2.3877,2.387,2.3869,2.3856,2.3869,2.386,2.3857,2.3855,2.385,2.3925,2.3855,2.3855,2.3856,2.3856,2.3856,0,2.3848,2.3852,2.3843,2.3841,2.3833,2.3851,2.385,2.3842,2.3829,2.3829,2.3821,2.3807,2.3796,2.3803,2.3794,2.3783,2.379,2.3779,2.378,2.378,2.384,2.3846,2.3774,2.3774,2.3774,2.3774,2.3774,2.3774,2.3808,2.3786,2.3795,2.3773,2.3777,2.3764,2.3761,2.3759,2.3759,2.3743,2.3735,2.374,2.3742,2.3733,2.3724,2.3726,2.3721,2.3708,2.3713,2.3768,2.3776,2.3784,2.379,2.3707,2.3707,2.3654,2.3654,2.3653]}]]